Redding, CA

4:43 AM PDT on April 23, 2017 (GMT -0700)
Redding Municipal

Weather History for KRDD - November, 2011

Change the Weather History Date:

Wednesday, November 2, 2011

  Actual Average Record
Temperature  
Mean Temperature 64 °F -  
Max Temperature 73 °F 69 °F 86 °F (2010)
Min Temperature 55 °F 44 °F 32 °F (2002)
Degree Days  
Heating Degree Days 1    
Month to date heating degree days 4  
Cooling Degree Days 0    
Month to date cooling degree days 0  
Year to date cooling degree days 1701  
Growing Degree Days 9 (Base 50)    
Moisture  
Dew Point 13 °F    
Average Humidity 12    
Maximum Humidity 14    
Minimum Humidity 9    
Precipitation  
Precipitation 0.00 in 0.12 in 1.15 in (2008)
Month to date precipitation 0.00 0.24  
Year to date precipitation 23.62 24.11  
Since 1 July precipitation 3.33  
Sea Level Pressure  
Sea Level Pressure 30.09 in    
Wind  
Wind Speed 7 mph (North)    
Max Wind Speed 14 mph    
Max Gust Speed 20 mph    
Visibility 10 miles    
Events      
T = Trace of Precipitation, MM = Missing Value Source: NWS Daily Summary

Daily Weather History Graph

Daily Weather History Graph

Search for Another Location

Airport or City:

Trip Planner

Search our weather history database for the weather conditions in past years. The results will help you decide how hot, cold, wet, or windy it might be!

Date:

Astronomy

Nov. 02, 2011 Rise Set
Actual Time 7:40 AM PDT 6:04 PM PDT
Civil Twilight 7:11 AM PDT 6:33 PM PDT
Nautical Twilight 6:39 AM PDT 7:05 PM PDT
Astronomical Twilight 6:07 AM PDT 7:37 PM PDT
Moon 2:02 PM PDT (11/2) No Moon Set
Length of Visible Light 11h 21m
Length of Day
10h 24m
Waxing Crescent, 51% of the Moon is Illuminated
Nov 2
Waxing Crescent
Nov 10
Full
Nov 18
Last Quarter
Nov 24
New
Dec 2
First Quarter

Hourly Weather History & Observations

Time (PDT) Temp. Dew Point Humidity Pressure Visibility Wind Dir Wind Speed Gust Speed Precip Events Conditions
12:53 AM 57.9 °F 6.1 °F 13% 30.23 in 10.0 mi NNW 4.6 mph - N/A   Clear
1:53 AM 57.9 °F 5.0 °F 12% 30.21 in 10.0 mi North 9.2 mph - N/A   Clear
2:53 AM 57.9 °F 5.0 °F 12% 30.20 in 10.0 mi NNW 10.4 mph - N/A   Clear
3:53 AM 57.0 °F 5.0 °F 12% 30.19 in 10.0 mi North 12.7 mph - N/A   Clear
4:53 AM 57.0 °F 6.1 °F 13% 30.18 in 10.0 mi North 10.4 mph - N/A   Clear
5:53 AM 57.0 °F 5.0 °F 12% 30.18 in 10.0 mi NNW 9.2 mph - N/A   Clear
6:53 AM 55.9 °F 6.1 °F 14% 30.16 in 10.0 mi North 10.4 mph - N/A   Clear
7:53 AM 55.9 °F 6.1 °F 14% 30.16 in 10.0 mi North 11.5 mph - N/A   Clear
8:53 AM 57.9 °F 8.1 °F 14% 30.16 in 10.0 mi North 10.4 mph - N/A   Clear
9:53 AM 60.8 °F 10.4 °F 14% 30.15 in 10.0 mi North 10.4 mph 19.6 mph N/A   Clear
10:53 AM 64.0 °F 10.9 °F 13% 30.14 in 10.0 mi NNW 9.2 mph - N/A   Clear
11:53 AM 66.9 °F 14.0 °F 13% 30.13 in 10.0 mi North 9.2 mph - N/A   Clear
12:53 PM 70.0 °F 16.0 °F 13% 30.10 in 10.0 mi Variable 5.8 mph - N/A   Clear
1:53 PM 72.0 °F 14.0 °F 11% 30.07 in 10.0 mi NNE 4.6 mph - N/A   Clear
2:53 PM 72.0 °F 10.9 °F 10% 30.05 in 10.0 mi Variable 4.6 mph - N/A   Clear
3:53 PM 72.0 °F 10.9 °F 10% 30.04 in 10.0 mi South 10.4 mph - N/A   Clear
4:53 PM 71.1 °F 12.9 °F 11% 30.02 in 10.0 mi South 8.1 mph - N/A   Clear
5:53 PM 64.9 °F 17.1 °F 16% 30.00 in 10.0 mi SSE 9.2 mph - N/A   Clear
6:53 PM 61.0 °F 18.0 °F 19% 29.99 in 10.0 mi Calm Calm - N/A   Clear
7:53 PM 54.0 °F 21.0 °F 28% 29.98 in 10.0 mi Calm Calm - N/A   Clear
8:53 PM 50.0 °F 24.1 °F 36% 29.98 in 10.0 mi NW 3.5 mph - N/A   Clear
9:53 PM 48.0 °F 26.1 °F 42% 29.98 in 10.0 mi Calm Calm - N/A   Clear
10:53 PM 46.0 °F 28.0 °F 50% 29.98 in 10.0 mi Calm Calm - N/A   Clear
11:53 PM 44.1 °F 28.9 °F 55% 29.98 in 10.0 mi Calm Calm - N/A   Clear